Temp
63 63 63 63 63 63 62 62 62 62 62 62 63 63 63 63 63 61 55 62 64 70 71 66 65 64 63 58 60 59 42 39 46 48 53 61 57 59 58 58 57 55 52 53 55
63 63 62 62 62 62 62 62 62 62 62 62 62 62 62 62 57 53 64 69 70 73 64 60 58 60 53 55 55 49 43 45 53 57 54 57 58 56 54 53 55 50 51 55 54
62 62 62 61 61 61 61 61 61 61 61 61 62 62 62 62 53 55 71 70 72 72 66 65 63 59 51 53 54 52 46 54 57 60 59 57 55 58 54 50 56 54 49 50 50
62 61 61 61 60 60 60 60 61 61 61 61 61 62 62 59 43 60 71 73 72 69 64 61 58 51 48 47 54 46 54 57 57 59 57 55 58 55 55 56 61 59 53 50 49
61 61 60 60 60 60 60 60 60 61 61 61 61 61 58 49 50 66 70 71 67 64 60 58 54 52 47 49 53 49 53 56 58 57 57 57 54 54 52 61 60 58 53 50 50
61 60 59 59 59 59 59 59 61 61 60 60 61 60 53 42 65 67 65 64 64 61 58 57 56 56 51 52 49 52 54 55 57 57 57 54 52 52 55 56 60 56 50 49 49
60 59 59 58 58 58 58 59 60 61 60 61 61 58 51 48 64 64 65 62 63 61 56 58 59 55 53 50 55 53 47 49 51 53 52 53 47 48 55 57 57 57 53 50 50
59 59 58 58 58 57 58 59 59 60 61 61 62 57 45 62 60 63 63 61 63 63 60 60 59 55 51 52 50 46 42 36 49 52 52 51 41 51 54 52 52 54 52 51 50
59 58 58 57 57 57 58 59 61 61 62 62 55 49 46 63 57 61 60 58 59 60 59 65 56 48 48 41 36 38 31 35 41 52 50 46 38 52 53 51 49 50 50 50 49
58 58 57 57 57 57 58 59 61 59 60 62 61 47 53 52 56 59 59 59 55 54 52 50 46 40 39 36 29 29 32 36 37 46 46 42 41 47 49 49 47 47 45 46 48
58 57 57 57 57 57 56 52 45 46 47 44 46 47 53 57 59 55 58 55 54 48 38 44 36 30 38 43 41 39 37 35 41 49 43 40 41 45 49 46 38 39 38 40 43
57 57 57 57 57 58 53 45 46 47 38 48 48 50 56 56 49 53 58 47 45 38 42 38 32 42 45 44 43 41 37 37 42 46 43 39 40 45 46 39 38 36 36 37 40
57 57 57 57 57 53 49 47 52 52 37 43 51 52 51 53 48 48 52 48 43 39 39 33 40 47 44 42 40 39 34 35 38 41 41 35 33 39 38 38 38 36 37 37 37
56 56 56 56 51 48 46 52 52 53 31 40 45 49 51 50 44 54 54 47 44 39 40 38 47 44 41 40 40 33 40 40 40 36 30 39 23 32 33 32 32 30 32 33 36
56 56 56 56 45 45 50 51 51 48 20 44 45 55 52 45 46 45 50 46 39 40 37 35 37 36 37 39 42 36 41 38 37 31 28 28 25 28 35 28 26 25 29 31 34
56 56 56 51 45 49 51 49 48 32 21 38 45 45 43 45 46 45 44 45 45 39 39 37 39 37 35 39 39 40 37 35 32 30 18 27 30 21 24 25 24 27 29 31 32
55 55 53 54 43 50 47 42 29 25 43 35 37 41 39 38 42 41 38 34 32 27 25 33 32 35 39 32 37 35 30 23 18 15 20 29 28 20 24 24 28 27 28 30 32
55 54 52 54 50 47 42 34 23 33 31 40 38 38 33 37 37 38 34 30 34 33 27 26 25 32 38 34 30 31 31 24 14 15 18 27 20 20 22 22 23 25 27 31 30
54 45 46 49 51 45 36 23 25 31 37 33 35 31 31 36 36 34 31 30 31 33 28 25 25 34 37 38 36 32 28 33 23 25 19 25 22 26 27 26 25 28 30 29 30
45 39 41 51 48 40 31 30 32 38 38 36 25 30 24 27 28 30 29 32 32 34 36 29 21 30 34 38 36 33 36 22 23 14 14 18 19 15 16 19 22 22 22 24 30
39 35 44 51 43 34 26 29 36 41 40 33 28 26 26 25 25 25 27 30 32 32 33 31 27 25 31 28 27 28 25 26 25 21 13 10 12 26 21 24 25 23 27 25 25
36 31 48 48 30 28 26 33 41 37 38 35 33 30 25 25 21 25 26 27 34 32 26 28 25 17 24 30 34 31 25 26 19 15 17 14 13 28 25 28 28 27 30 31 32
33 32 44 43 24 24 32 35 36 35 34 33 30 31 30 23 16 25 26 31 33 29 24 28 21 15 19 24 29 23 24 25 22 20 16 11 15 28 30 31 32 31 30 34 32
35 27 32 34 36 29 27 28 29 38 34 34 30 31 26 24 27 18 23 30 32 32 38 32 20 20 12 19 25 18 25 26 19 10 11 12 18 22 26 28 31 31 28 28 29
36 30 30 24 28 28 30 29 26 26 35 34 28 29 23 13 17 20 24 23 28 33 28 27 18 21 24 24 25 26 24 24 17 18 11 14 16 23 27 27 27 28 28 28 28
34 32 30 27 29 27 29 26 28 30 31 26 26 29 22 17 21 12 15 17 17 18 21 21 16 22 17 25 25 21 24 24 25 24 16 20 17 25 22 24 23 24 27 27 26
39 39 33 29 25 24 25 27 28 32 31 33 28 23 20 26 27 27 27 27 26 20 14 15 18 16 11 23 21 12 19 24 23 25 23 14 21 24 24 25 23 24 26 26 26
MSLP
1018.99 1018.53 1018.02 1017.52 1016.96 1016.41 1015.95 1015.47 1014.97 1014.58 1014.15 1013.80 1013.37 1013.15 1012.86 1012.55 1012.17 1011.95 1011.24 1009.84 1009.62 1009.59 1009.68 1009.94 1010.29 1010.48 1010.86 1011.14 1011.12 1011.50 1012.16 1011.60 1010.55 1009.95 1008.28 1007.14 1007.36 1007.10 1007.04 1007.31 1008.12 1009.40 1010.17 1010.89 1012.48
1019.12 1018.60 1018.06 1017.53 1016.87 1016.22 1015.67 1015.08 1014.50 1014.05 1013.70 1013.35 1013.02 1012.77 1012.52 1012.33 1011.97 1010.78 1008.91 1008.65 1008.77 1008.93 1009.66 1009.90 1010.22 1010.56 1011.07 1010.84 1011.05 1011.05 1010.86 1010.23 1008.96 1008.74 1008.23 1007.64 1007.22 1007.13 1007.42 1007.79 1008.80 1010.40 1011.56 1011.87 1012.53
1019.10 1018.62 1018.04 1017.40 1016.66 1015.96 1015.33 1014.72 1014.13 1013.58 1013.15 1012.87 1012.67 1012.44 1012.26 1012.11 1011.46 1008.48 1007.34 1007.47 1008.10 1008.39 1009.03 1009.53 1010.18 1010.74 1011.02 1010.64 1010.48 1009.73 1009.20 1008.67 1008.29 1007.90 1007.94 1007.70 1007.50 1007.17 1007.44 1008.03 1008.29 1009.64 1011.47 1012.38 1013.21
1019.08 1018.49 1017.89 1017.18 1016.38 1015.51 1014.71 1014.02 1013.39 1012.90 1012.50 1012.31 1012.26 1012.21 1012.09 1012.00 1010.37 1007.43 1006.80 1005.95 1007.21 1008.05 1009.14 1009.58 1010.07 1010.48 1010.61 1010.34 1009.78 1009.62 1008.92 1008.43 1007.92 1007.86 1007.83 1007.74 1007.30 1007.33 1007.49 1007.54 1007.57 1008.44 1010.02 1011.74 1012.72
1018.97 1018.27 1017.66 1016.93 1016.06 1015.14 1014.23 1013.35 1012.62 1012.10 1011.78 1011.64 1011.68 1011.71 1011.77 1011.34 1009.27 1007.63 1007.22 1006.91 1007.50 1008.18 1008.47 1009.14 1009.80 1010.26 1010.26 1009.94 1009.87 1009.33 1008.52 1008.34 1008.31 1008.23 1007.74 1007.57 1007.48 1007.30 1007.26 1007.20 1007.76 1008.65 1010.06 1010.91 1011.86
1018.81 1018.09 1017.43 1016.59 1015.65 1014.67 1013.73 1012.87 1012.02 1011.38 1011.09 1011.07 1011.06 1011.33 1011.45 1010.36 1007.67 1007.34 1007.48 1007.73 1007.61 1008.02 1008.43 1008.91 1008.93 1009.28 1009.52 1009.45 1009.45 1008.52 1008.59 1008.22 1007.79 1007.78 1007.67 1007.72 1007.39 1007.51 1007.01 1007.09 1007.58 1008.58 1009.75 1010.48 1011.10
1018.87 1018.13 1017.31 1016.35 1015.35 1014.22 1013.12 1012.27 1011.51 1010.78 1010.28 1010.26 1010.37 1010.72 1010.72 1008.97 1007.70 1007.52 1007.60 1007.82 1007.87 1008.13 1008.38 1008.38 1008.42 1008.73 1009.15 1009.49 1008.83 1008.58 1008.53 1008.23 1007.84 1007.47 1007.14 1007.26 1007.06 1007.19 1006.81 1007.17 1007.46 1007.98 1009.02 1009.89 1010.47
1018.93 1018.08 1017.17 1016.16 1015.07 1013.88 1012.43 1011.45 1010.82 1010.33 1009.95 1009.76 1009.96 1010.37 1009.36 1007.70 1007.74 1007.60 1007.63 1007.82 1007.91 1008.12 1008.50 1008.52 1008.36 1008.90 1009.09 1009.06 1008.89 1008.81 1008.54 1008.22 1007.27 1007.26 1007.14 1007.57 1006.20 1006.72 1006.72 1007.28 1007.46 1007.67 1008.57 1009.39 1010.13
1018.77 1017.82 1016.79 1015.81 1014.67 1013.46 1011.91 1010.78 1009.44 1009.60 1009.69 1009.63 1010.19 1010.32 1008.88 1007.94 1007.83 1007.59 1007.62 1007.79 1007.92 1008.10 1008.30 1008.38 1008.62 1008.84 1009.15 1009.58 1009.99 1009.37 1008.92 1008.34 1007.84 1006.97 1007.03 1007.18 1006.67 1006.31 1006.54 1006.95 1007.52 1007.97 1008.40 1009.11 1009.99
1018.67 1017.67 1016.49 1015.48 1014.40 1013.14 1011.74 1010.35 1009.75 1009.73 1009.74 1009.68 1009.35 1010.12 1008.39 1007.88 1007.80 1007.70 1007.68 1007.86 1008.12 1008.35 1008.64 1008.89 1009.14 1009.30 1009.68 1009.98 1008.96 1009.38 1009.27 1008.55 1007.85 1007.10 1006.86 1006.95 1006.88 1006.57 1006.90 1007.38 1008.15 1009.03 1009.67 1009.81 1009.96
1018.44 1017.48 1016.53 1015.32 1014.17 1013.23 1011.89 1010.72 1011.03 1010.70 1010.76 1010.46 1009.82 1009.24 1008.24 1007.86 1007.66 1007.72 1007.59 1007.80 1008.05 1008.71 1009.14 1009.14 1009.51 1009.26 1009.02 1009.05 1009.14 1009.27 1009.04 1008.43 1007.70 1006.95 1007.05 1007.16 1007.10 1007.26 1007.47 1008.42 1009.88 1010.62 1011.34 1011.10 1010.88
1018.55 1017.52 1016.40 1015.23 1014.31 1013.47 1013.02 1013.26 1014.25 1014.33 1012.03 1010.08 1009.30 1008.88 1007.99 1007.78 1007.88 1007.76 1007.74 1008.23 1008.51 1008.77 1009.18 1009.54 1009.00 1008.62 1008.66 1008.85 1009.03 1009.01 1008.93 1008.34 1007.70 1006.98 1007.00 1007.40 1007.77 1007.96 1008.66 1010.60 1011.49 1012.33 1012.63 1012.46 1012.08
1018.53 1017.51 1016.31 1014.97 1013.91 1013.59 1013.91 1014.26 1014.16 1014.03 1012.97 1009.43 1008.21 1007.70 1007.81 1007.98 1007.70 1007.67 1007.94 1008.08 1008.35 1008.64 1008.79 1008.90 1008.07 1008.02 1008.38 1008.47 1008.64 1008.46 1008.54 1008.38 1008.04 1007.57 1007.34 1007.86 1008.63 1009.07 1011.02 1011.88 1013.06 1013.84 1014.12 1013.86 1013.51
1018.46 1017.48 1016.64 1015.33 1014.24 1014.39 1014.17 1014.13 1013.82 1013.79 1012.89 1009.24 1008.02 1007.66 1007.77 1007.79 1007.91 1007.71 1007.91 1008.30 1008.19 1008.24 1008.52 1008.37 1007.45 1007.71 1008.03 1008.01 1007.98 1008.18 1008.20 1008.23 1008.10 1008.24 1008.49 1008.53 1009.64 1010.16 1011.75 1013.20 1014.45 1015.32 1015.43 1015.13 1014.76
1018.33 1017.30 1016.37 1015.65 1015.43 1014.75 1014.40 1013.83 1013.60 1013.65 1012.18 1008.83 1008.09 1007.61 1007.66 1008.08 1008.08 1008.16 1008.19 1008.32 1008.34 1008.15 1008.51 1008.01 1007.61 1007.64 1008.01 1008.04 1008.08 1008.32 1008.42 1008.60 1008.81 1009.10 1009.49 1009.86 1011.13 1011.34 1012.58 1014.26 1015.67 1016.41 1016.41 1016.21 1016.05
1018.12 1016.92 1016.35 1015.58 1015.44 1014.55 1013.99 1013.74 1013.70 1013.54 1010.53 1008.51 1008.18 1007.88 1008.20 1008.02 1007.98 1008.26 1008.35 1008.52 1008.67 1008.68 1008.42 1008.31 1008.29 1008.36 1008.59 1008.71 1008.70 1008.89 1009.14 1009.41 1009.78 1010.21 1010.69 1010.55 1011.77 1012.66 1014.04 1015.24 1016.48 1016.92 1017.02 1016.94 1016.93
1018.09 1016.75 1015.87 1015.38 1014.97 1014.13 1013.96 1014.04 1013.92 1012.49 1009.62 1010.06 1009.72 1009.48 1009.11 1008.58 1008.06 1008.35 1008.71 1009.08 1009.26 1009.35 1009.27 1008.83 1009.11 1009.24 1009.21 1009.32 1009.44 1009.40 1009.74 1010.59 1011.30 1011.63 1010.80 1010.77 1012.40 1014.05 1015.10 1016.06 1016.81 1017.26 1017.39 1017.31 1017.27
1018.18 1016.81 1015.30 1014.72 1014.40 1014.37 1014.32 1014.19 1013.88 1012.07 1011.73 1011.12 1010.93 1009.96 1009.82 1009.51 1009.13 1009.10 1009.12 1009.51 1009.60 1009.82 1010.12 1010.17 1010.12 1009.84 1009.81 1009.88 1009.85 1009.89 1009.92 1010.55 1011.13 1011.47 1011.56 1011.75 1013.22 1014.86 1016.17 1016.90 1017.40 1017.80 1017.82 1017.83 1017.90
1017.86 1016.87 1015.33 1014.35 1014.14 1014.38 1014.80 1014.61 1013.72 1012.99 1012.79 1012.24 1011.34 1010.90 1010.69 1010.52 1010.57 1010.35 1010.36 1010.66 1010.84 1010.85 1011.09 1010.97 1010.65 1010.37 1010.15 1010.23 1010.66 1010.37 1010.65 1010.81 1011.44 1012.02 1012.67 1012.89 1014.50 1015.66 1016.62 1017.31 1017.74 1018.04 1018.03 1018.14 1018.16
1017.92 1017.05 1015.12 1013.75 1013.92 1014.62 1014.99 1014.09 1013.70 1013.41 1013.06 1012.70 1012.50 1012.48 1012.51 1012.14 1011.94 1011.66 1011.45 1012.04 1011.94 1011.87 1011.54 1011.60 1011.45 1010.92 1010.69 1010.90 1011.03 1010.96 1011.25 1011.60 1012.24 1012.87 1013.48 1013.81 1014.89 1015.96 1017.10 1017.74 1018.02 1018.29 1018.24 1018.23 1018.20
1018.00 1017.13 1014.56 1013.69 1013.87 1014.60 1014.78 1014.16 1013.67 1013.45 1013.35 1013.26 1013.11 1013.39 1013.63 1013.86 1013.61 1013.11 1012.59 1013.31 1013.11 1012.77 1012.51 1012.40 1012.20 1012.07 1011.51 1011.61 1011.37 1011.50 1011.97 1012.44 1012.93 1013.61 1014.12 1015.13 1015.94 1016.10 1016.85 1017.43 1017.87 1018.24 1018.22 1018.14 1018.31
1018.53 1017.66 1014.44 1014.82 1015.09 1015.02 1014.91 1014.33 1014.11 1013.67 1013.61 1013.60 1013.50 1013.89 1014.35 1014.70 1014.58 1014.24 1013.88 1014.21 1014.15 1014.11 1013.92 1014.01 1013.27 1012.96 1012.64 1012.48 1012.30 1012.26 1012.80 1013.14 1013.84 1014.93 1015.33 1015.81 1016.50 1016.26 1016.36 1017.14 1017.55 1017.90 1018.07 1018.26 1018.36
1019.07 1017.73 1015.15 1015.20 1015.96 1016.02 1015.54 1014.91 1014.50 1013.96 1013.95 1014.11 1014.28 1014.52 1014.95 1015.46 1015.72 1015.05 1014.97 1014.89 1014.62 1014.70 1015.11 1014.97 1014.38 1014.02 1013.76 1013.70 1013.19 1013.18 1013.60 1013.91 1014.65 1015.64 1016.13 1016.43 1016.78 1016.56 1016.72 1017.15 1017.50 1017.88 1018.23 1018.43 1018.69
1019.54 1018.54 1016.97 1016.12 1016.22 1016.55 1016.28 1015.79 1015.13 1014.27 1014.14 1014.35 1014.61 1014.93 1015.53 1015.86 1015.87 1015.81 1015.44 1015.34 1015.12 1015.07 1014.91 1015.24 1015.50 1015.05 1014.58 1014.07 1014.13 1014.06 1013.90 1014.35 1015.16 1016.20 1016.55 1016.69 1016.72 1016.96 1016.96 1017.11 1017.43 1017.90 1018.32 1018.60 1019.04
1019.71 1019.01 1018.38 1017.85 1017.26 1017.29 1017.11 1016.42 1015.20 1014.80 1014.46 1014.57 1014.82 1015.26 1016.02 1016.63 1016.68 1016.45 1016.15 1015.95 1015.59 1015.40 1015.43 1015.56 1015.77 1015.39 1014.86 1014.28 1013.84 1013.89 1013.99 1014.27 1015.17 1015.82 1016.45 1016.52 1016.46 1016.36 1016.40 1016.71 1017.43 1018.04 1018.62 1018.85 1019.23
1019.49 1019.36 1018.80 1018.07 1017.80 1017.55 1016.98 1016.02 1015.51 1014.51 1014.80 1015.10 1014.78 1014.82 1015.49 1016.39 1016.66 1016.84 1016.77 1016.84 1016.68 1016.32 1016.23 1016.05 1016.17 1015.64 1015.25 1014.37 1014.05 1013.91 1013.76 1013.86 1014.25 1014.82 1015.57 1016.00 1016.47 1016.32 1016.83 1017.10 1018.18 1018.70 1018.92 1019.40 1019.83
1018.67 1018.80 1018.90 1018.02 1018.02 1017.83 1016.91 1016.12 1015.40 1015.31 1014.54 1014.73 1014.84 1015.22 1015.52 1015.67 1015.91 1016.08 1016.10 1016.09 1016.16 1016.48 1016.55 1016.71 1016.46 1016.44 1015.62 1014.54 1014.05 1014.02 1013.15 1013.11 1013.44 1013.95 1014.64 1015.45 1016.02 1016.71 1017.59 1018.10 1018.70 1019.12 1019.36 1019.86 1020.33
Wind_Speed
23 24 24 24 24 24 24 22 21 20 19 19 17 16 15 15 16 12 18 11 12 22 1 7 8 8 4 5 6 4 2 6 13 7 11 8 4 4 2 5 4 7 4 5 17
23 24 24 25 25 26 25 25 24 22 20 19 17 16 15 13 13 18 20 23 23 13 6 12 14 11 5 9 6 7 9 12 8 14 6 3 4 3 1 2 3 6 7 15 18
24 25 25 26 27 27 26 25 25 24 22 19 17 14 11 8 8 8 6 23 23 17 10 9 8 6 5 2 10 11 11 18 12 13 5 5 4 2 5 3 6 8 12 11 13
26 27 27 28 28 29 29 28 26 23 22 19 15 11 8 5 8 2 7 1 21 13 9 7 6 8 6 12 7 6 15 18 7 8 5 6 2 5 5 7 4 10 22 15 15
28 28 29 30 30 31 31 29 26 23 20 17 13 8 4 6 12 3 3 9 8 10 15 11 13 9 7 7 16 14 18 9 16 12 13 8 10 7 4 10 3 10 15 19 16
29 30 31 32 32 32 32 28 26 22 18 14 11 7 5 8 5 4 3 5 4 10 9 8 8 9 5 9 8 7 14 20 15 14 13 10 8 4 10 4 9 11 14 14 17
29 30 31 32 33 33 32 29 25 22 17 12 8 10 9 14 3 2 1 4 3 5 4 4 9 5 2 12 9 6 8 6 6 6 7 1 7 11 10 7 10 8 11 13 16
30 32 32 32 33 34 32 28 26 22 13 7 7 7 7 5 3 3 3 4 4 4 4 4 4 5 5 4 7 5 3 4 6 5 7 9 15 7 9 7 13 11 10 13 14
31 33 34 33 33 32 31 29 21 6 7 9 7 4 7 1 2 3 4 4 4 2 2 3 1 3 1 3 5 4 5 5 5 12 5 11 3 15 5 6 7 6 9 10 8
31 30 32 32 31 28 29 28 6 3 4 7 6 0 4 2 2 2 1 1 4 5 1 2 2 3 3 4 16 7 6 6 8 5 10 9 7 4 3 3 3 2 6 1 9
30 31 32 32 30 24 17 6 9 5 6 6 7 6 6 1 2 4 3 3 2 4 6 5 4 8 14 15 6 4 5 7 5 6 6 9 7 10 8 1 10 8 7 8 5
31 31 33 34 30 21 5 6 4 4 13 13 17 12 6 2 2 4 3 5 5 7 4 2 10 12 8 12 12 14 14 16 10 4 7 4 9 6 2 6 8 8 9 9 8
30 30 33 33 29 5 6 5 4 2 7 9 6 4 3 5 4 6 8 4 5 6 9 7 7 13 12 11 13 12 7 6 9 2 2 1 4 3 8 11 11 10 6 9 7
29 30 31 34 5 8 2 6 4 3 5 4 3 2 2 2 2 2 4 1 4 8 8 9 16 16 8 7 5 11 2 2 4 5 4 1 5 0 5 10 10 7 7 8 10
28 29 29 23 5 4 5 6 6 2 6 2 3 1 1 3 2 1 2 2 4 2 1 6 1 3 4 2 1 3 3 3 2 3 3 2 2 5 7 5 4 4 5 7 7
29 31 30 5 3 4 7 7 1 1 10 2 3 2 2 3 3 3 3 1 3 3 4 6 1 2 2 3 3 5 3 4 4 3 3 8 8 4 3 4 3 2 4 6 7
28 32 22 3 5 6 5 3 2 5 7 6 6 8 6 5 3 4 4 2 3 1 3 3 2 2 2 3 3 1 4 0 1 0 6 1 6 2 2 3 5 7 5 4 5
27 30 8 7 3 5 4 3 6 5 4 6 6 15 2 9 5 9 3 2 2 0 2 1 3 1 1 1 3 5 3 4 6 5 3 1 5 3 2 1 2 2 5 6 6
23 5 6 4 2 3 4 1 2 2 4 8 9 5 3 4 7 4 4 4 4 5 4 3 4 2 3 2 2 3 5 2 2 1 2 2 3 3 2 4 4 5 6 6 6
8 4 5 2 2 3 2 3 2 3 3 3 2 5 5 9 6 7 1 5 4 6 6 3 3 3 2 2 1 2 0 2 2 4 4 3 3 3 2 3 1 3 3 3 5
3 6 6 10 3 4 3 2 2 2 5 4 3 4 4 4 3 5 1 7 7 6 8 3 4 1 2 3 3 3 1 2 2 3 5 1 3 2 5 5 5 3 4 3 3
3 6 8 8 5 1 2 2 4 5 4 4 3 2 1 3 3 3 3 6 7 7 6 6 2 2 3 2 4 4 2 2 3 2 2 3 4 4 5 6 5 4 5 4 4
5 5 7 5 2 4 5 5 5 5 1 2 3 1 1 2 3 1 2 5 3 3 2 7 4 2 1 0 3 4 1 3 5 3 2 5 3 2 6 7 6 7 5 5 5
4 5 5 4 0 2 6 5 6 3 3 4 4 2 2 3 3 5 4 3 4 1 6 6 2 3 4 2 2 2 1 2 5 3 3 5 5 5 5 6 6 6 7 7 6
2 2 2 5 4 7 5 9 17 8 5 5 3 5 5 1 5 4 3 5 5 6 1 5 3 4 7 9 7 6 6 7 6 6 5 5 2 5 8 10 8 8 7 8 6
3 3 2 5 6 5 10 5 13 17 6 5 7 7 5 7 9 7 3 2 7 5 2 2 3 2 5 10 9 7 7 8 8 6 3 5 4 4 5 9 7 7 7 6 6
1 1 3 5 3 4 4 9 5 13 5 10 6 3 2 6 5 7 7 6 6 5 4 2 3 3 4 7 4 5 7 10 5 5 8 5 7 7 7 8 6 6 7 7 6
Wind_Direction
358 353 349 344 340 337 333 329 324 320 316 312 311 308 309 306 298 279 253 235 195 230 198 152 187 202 189 208 194 150 213 220 238 197 247 284 305 348 296 116 63 14 88 129 131
354 351 347 342 337 334 330 326 322 317 312 310 307 307 309 309 292 269 240 230 231 222 191 177 195 197 209 196 199 172 207 215 208 219 245 286 212 176 136 97 102 65 42 129 138
353 349 346 342 336 331 327 323 318 313 308 304 303 303 300 301 295 249 305 228 229 211 189 183 187 198 218 154 216 215 220 219 237 242 190 291 292 177 173 217 198 178 164 155 148
352 348 345 340 336 331 327 322 316 309 301 297 297 295 295 256 237 315 349 130 187 157 181 197 196 185 200 211 237 281 225 233 249 265 284 251 232 256 188 227 197 152 167 163 170
350 347 344 339 335 331 327 323 318 312 303 292 284 268 245 219 253 262 51 128 138 160 187 195 199 192 209 207 245 232 248 238 240 252 256 275 249 229 231 242 143 119 158 178 180
350 347 343 339 336 331 327 322 318 316 306 292 274 216 210 240 261 139 182 156 180 169 195 193 202 208 233 241 203 245 234 250 243 247 263 248 258 175 251 200 249 159 180 184 180
348 345 341 337 335 331 326 320 318 314 308 292 257 171 219 242 358 111 76 191 170 191 204 243 248 180 170 267 280 230 269 270 223 224 214 45 270 229 244 221 231 229 184 183 185
347 343 340 337 335 331 322 318 315 309 308 294 178 167 243 205 243 202 207 222 233 209 201 266 311 205 177 290 341 281 303 234 221 219 242 161 257 254 250 232 236 226 172 181 181
344 340 337 337 335 331 321 320 310 288 315 125 135 216 274 26 189 215 173 197 188 245 249 280 321 191 272 146 321 257 244 235 285 235 221 178 220 246 253 216 218 203 173 178 161
341 337 335 337 336 333 324 323 64 25 301 199 256 19 244 188 129 14 16 329 168 140 96 217 164 195 167 149 228 208 249 253 227 259 197 205 217 238 213 111 194 293 33 200 181
339 337 336 338 336 335 335 11 11 359 30 266 279 287 286 143 141 218 192 172 148 130 188 204 175 205 208 217 242 268 254 265 277 252 180 217 216 232 259 229 73 57 39 28 50
338 338 337 337 334 328 352 64 137 260 297 280 263 274 255 144 257 208 155 157 178 200 199 305 236 227 207 225 241 243 258 269 282 254 181 220 239 237 61 57 68 61 38 24 41
336 338 338 337 327 356 80 56 213 287 280 292 223 206 202 145 237 191 157 199 209 205 212 197 238 219 222 245 244 234 231 229 242 300 194 175 284 201 67 81 67 49 37 31 8
336 336 339 339 25 329 56 342 333 158 306 254 206 226 104 176 287 100 192 238 238 213 216 237 246 240 210 225 195 241 168 235 163 144 222 107 265 269 117 80 60 40 41 32 27
335 331 335 332 273 312 288 321 308 199 343 125 125 167 146 195 167 174 59 50 267 265 336 244 101 133 197 218 188 195 109 123 90 100 85 274 80 276 130 73 24 26 49 48 43
336 329 334 330 300 272 328 313 214 5 251 75 96 353 1 194 219 148 132 134 254 306 250 239 21 63 118 71 37 150 109 50 50 82 304 201 181 258 203 162 166 94 71 63 72
332 326 327 263 257 317 334 27 359 197 345 17 359 336 320 265 275 167 160 188 214 321 352 335 103 42 54 103 16 133 110 195 16 263 230 313 191 220 41 21 142 144 126 91 91
331 317 309 263 257 332 16 44 232 52 354 16 326 303 193 14 1 349 318 269 75 287 86 313 251 46 111 65 225 201 194 178 206 200 244 345 212 225 248 262 136 136 144 122 116
330 290 305 251 295 66 57 328 309 10 356 321 318 321 17 35 345 13 19 12 33 13 205 212 249 149 83 29 62 193 192 160 67 266 96 189 72 40 60 29 50 127 133 132 132
321 292 280 265 300 84 109 235 160 355 335 303 277 46 330 345 357 5 317 21 359 360 343 264 293 205 151 125 329 118 256 108 153 170 206 301 103 215 259 216 245 94 135 155 136
321 326 266 342 84 69 184 178 307 353 53 339 316 310 336 10 306 299 258 59 1 359 355 350 215 223 84 188 211 130 164 72 97 149 171 158 272 286 203 188 161 199 191 174 158
301 309 294 350 11 38 84 6 340 309 56 298 347 357 99 327 285 278 337 37 4 1 5 7 357 338 49 72 9 35 80 93 155 220 110 122 276 311 152 138 122 72 104 137 137
300 259 297 100 348 339 321 310 306 258 187 312 281 112 116 242 340 338 355 195 136 78 68 2 327 348 111 281 358 63 31 101 111 101 210 129 219 224 137 150 162 120 128 133 120
303 307 310 17 310 351 352 300 290 331 233 198 237 262 214 271 217 274 313 164 218 176 303 135 254 272 220 46 108 307 196 167 115 111 196 203 153 193 223 222 170 146 131 125 122
232 277 325 300 315 324 302 293 279 272 234 199 252 213 167 245 334 270 274 355 327 307 346 149 248 240 261 275 286 222 210 207 164 186 158 240 219 251 205 200 155 136 130 115 112
277 293 309 269 286 293 286 262 288 292 254 254 217 211 171 179 194 244 185 186 222 313 158 282 244 307 272 256 250 249 224 226 218 196 186 191 255 144 80 90 108 132 124 119 116
234 237 232 273 274 269 254 284 298 306 249 236 266 175 103 227 216 227 218 233 216 184 192 170 135 42 281 342 62 333 229 226 200 170 175 178 215 161 130 125 139 138 126 122 122